OSCAR 7 (AO-7) 1 07530U 74089B 26033.53767745 -.00000041 00000+0 34464-4 0 9991 2 07530 101.9969 45.3508 0012301 29.3531 93.6212 12.53695597343642 PHASE 3B (AO-10) 1 14129U 83058B 26032.88008791 -.00000076 00000+0 00000+0 0 9997 2 14129 25.9660 242.3970 6057197 78.0086 340.2671 2.05871360292703 UOSAT 2 (UO-11) 1 14781U 84021B 26033.49445306 .00001470 00000+0 15679-3 0 9997 2 14781 97.7885 0.7479 0006036 270.5358 89.5168 14.90366572237067 LUSAT (LO-19) 1 20442U 90005G 26033.52628425 .00000166 00000+0 76269-4 0 9990 2 20442 98.8949 51.5568 0010679 238.2947 121.7196 14.34072238883098 EYESAT A (AO-27) 1 22825U 93061C 26033.46454525 .00000128 00000+0 65602-4 0 9990 2 22825 98.7058 100.8345 0009232 131.4757 228.7219 14.30900324687731 ITAMSAT (IO-26) 1 22826U 93061D 26033.41401936 .00000156 00000+0 75940-4 0 9991 2 22826 98.7004 100.6878 0009945 117.0346 243.1853 14.31323378688035 RADIO ROSTO (RS15) 1 23439U 94085A 26033.57465035 -.00000027 00000+0 44157-3 0 9999 2 23439 64.8150 160.9214 0151429 28.7136 332.2022 11.27583659280729 JAS-2 (FO-29) 1 24278U 96046B 26033.52867467 .00000002 00000+0 34615-4 0 9991 2 24278 98.5427 260.6969 0350891 85.8223 278.2930 13.53266312454952 TECHSAT 1B (GO-32) 1 25397U 98043D 26033.47740800 .00000089 00000+0 58552-4 0 9999 2 25397 98.9978 22.8997 0000537 194.6033 165.5129 14.24395426432150 ISS (ZARYA) 1 25544U 98067A 26033.53325067 .00009405 00000+0 18249-3 0 9999 2 25544 51.6312 246.1482 0011108 57.0277 303.1777 15.48343227550889 PCSAT (NO-44) 1 26931U 01043C 26033.00570461 .00000139 00000+0 82842-4 0 9996 2 26931 67.0489 233.8986 0007069 266.7343 93.2950 14.31890479271092 SAUDISAT 1C (SO-50) 1 27607U 02058C 26033.47718497 .00001627 00000+0 21046-3 0 9999 2 27607 64.5523 185.6606 0074212 287.0549 72.2437 14.82634410244482 CUTE-1 (CO-55) 1 27844U 03031E 26033.50795850 .00000385 00000+0 18573-3 0 9997 2 27844 98.6771 43.7471 0008994 211.2644 148.8001 14.24234728172505 CUBESAT XI-IV (CO-57) 1 27848U 03031J 26033.49974978 .00000306 00000+0 15349-3 0 9990 2 27848 98.6800 43.5598 0008627 230.8154 129.2259 14.23534439172213 MOZHAETS 4 (RS22) 1 27939U 03042A 26033.61105906 .00001569 00000+0 25160-3 0 9998 2 27939 98.3390 214.2052 0011025 341.2310 106.0338 14.73147911195737 CUBESAT XI-V 1 28895U 05043F 26033.37423218 .00001894 00000+0 30867-3 0 9996 2 28895 98.2769 186.3491 0013154 273.3824 86.5877 14.72152432 81911 CUTE-1.7+APD II (CO-65) 1 32785U 08021C 26033.61433510 .00007646 00000+0 50261-3 0 9992 2 32785 97.8150 12.4868 0010728 120.6309 239.5978 15.07838455964902 SEEDS II (CO-66) 1 32791U 08021J 26033.49902882 .00018428 00000+0 68695-3 0 9998 2 32791 97.7480 25.5205 0005605 76.4403 283.7459 15.27482533966692 YUBILEINY (RS30) 1 32953U 08025A 26033.61921192 .00000108 00000+0 70356-3 0 9994 2 32953 82.5001 79.1525 0018427 243.1870 116.7325 12.43174734802973 KKS-1 (KISEKI) 1 33499U 09002H 26033.50869261 .00001968 00000+0 25086-3 0 9997 2 33499 98.1193 313.8727 0008388 17.3473 342.8025 14.82680402916234 SWISSCUBE 1 35932U 09051B 26033.30433601 .00001331 00000+0 27447-3 0 9995 2 35932 98.4135 298.8145 0005533 275.7025 84.3544 14.62151766869443 BEESAT-1 1 35933U 09051C 26033.31416673 .00001208 00000+0 25392-3 0 9997 2 35933 98.4062 298.7353 0004178 294.3590 65.7173 14.61441404869486 ITUPSAT1 1 35935U 09051E 26033.46196158 .00001091 00000+0 23654-3 0 9997 2 35935 98.4150 298.2149 0006482 303.4543 56.6036 14.60183879869074 XIWANG-1 (HOPE-1) 1 36122U 09072B 26033.57327713 -.00000519 00000+0 -12429-2 0 9997 2 36122 100.3851 349.6640 0007441 176.9837 183.1322 13.16432776775293 O/OREOS (USA 219) 1 37224U 10062C 26033.42508723 .00002937 00000+0 28735-3 0 9990 2 37224 71.9711 25.4469 0016497 316.7666 43.2208 14.93044424 96524 JUGNU 1 37839U 11058B 26033.35739207 .00000494 00000+0 11832-3 0 9999 2 37839 19.9618 47.5365 0018677 28.0736 89.8659 14.13724406739928 SRMSAT 1 37841U 11058D 26033.63617566 .00000442 00000+0 96092-4 0 9991 2 37841 19.9707 153.8610 0011663 163.0302 312.8375 14.11533749738784 STRAND-1 1 39090U 13009E 26033.47290086 .00000394 00000+0 14729-3 0 9995 2 39090 98.3853 217.0463 0007570 274.1428 85.8894 14.37061093677713 ZACUBE-1 (TSHEPISOSAT) 1 39417U 13066B 26033.44407817 .00007517 00000+0 60084-3 0 9999 2 39417 97.8158 355.1043 0041253 341.6485 18.3247 14.99852043660520 GOMX-1 1 39430U 13066Q 26033.60993558 .00004002 00000+0 60794-3 0 9998 2 39430 97.6578 242.5003 0130226 149.1293 211.7655 14.68937812650155 CUBEBUG-2 (LO-74) 1 39440U 13066AA 26033.50554816 .00003846 00000+0 36710-3 0 9994 2 39440 97.8770 342.1488 0060493 113.0571 247.7042 14.92526059656893 FUNCUBE-1 (AO-73) 1 39444U 13066AE 26033.39618614 .00011228 00000+0 73906-3 0 9993 2 39444 97.8126 2.3696 0036538 303.9434 55.8321 15.07166846659341 UWE-3 1 39446U 13066AG 26033.41259173 .00006115 00000+0 54003-3 0 9995 2 39446 97.8543 348.8346 0051814 50.3426 310.2349 14.95700937657420 UNISAT-6 1 40012U 14033C 26033.42454902 .00004361 00000+0 47967-3 0 9991 2 40012 97.7661 188.7380 0046391 151.5674 208.8089 14.87324095626127 DUCHIFAT-1 1 40021U 14033M 26033.07430414 .00044386 00000+0 91807-3 0 9997 2 40021 98.0708 75.4178 0005664 190.6627 169.4501 15.45659878634765 QB50P1 1 40025U 14033R 26033.46620448 .00010330 00000+0 54555-3 0 9993 2 40025 98.0988 35.3980 0008257 339.6183 20.4717 15.15699912632604 LILACSAT-2 1 40908U 15049K 26033.59327464 .00018859 00000+0 37881-3 0 9994 2 40908 97.4854 65.6262 0008461 33.4575 326.7207 15.46669865574912 FOX-1A (AO-85) 1 40967U 15058D 26033.29293946 .00002891 00000+0 26941-3 0 9997 2 40967 64.7776 337.9116 0130619 109.9168 251.6071 14.90065373 93461 CAS-2T & KS-1Q 1 41847U 16066G 26033.44637552 .00001905 00000+0 27605-3 0 9990 2 41847 98.3956 110.6742 0343210 178.0913 182.1682 14.44333448485349 RADFXSAT (FOX-1B) 1 43017U 17073E 26033.08719149 .00007780 00000+0 35588-3 0 9999 2 43017 97.4910 263.1446 0159593 74.3066 287.5705 15.10061231444984 DIWATA-2B 1 43678U 18084H 26033.63083351 .00000577 00000+0 51892-4 0 9999 2 43678 98.1071 224.2261 0008053 237.2030 122.8417 14.99783876396047 ES'HAIL 2 1 43700U 18090A 26033.49406449 .00000134 00000+0 00000+0 0 9992 2 43700 0.0201 91.0921 0002326 262.4360 342.7843 1.00273144 26323 FOX-1CLIFF (AO-95) 1 43770U 18099N 26033.38232917 .00013214 00000+0 55672-3 0 9995 2 43770 97.4587 94.3116 0010586 101.6113 258.6312 15.23417391392670 ITASAT 1 43786U 18099AE 26033.09789474 .00007416 00000+0 37703-3 0 9997 2 43786 97.4240 87.3495 0014540 102.6274 257.6587 15.17051140392412 JY1SAT (JO-97) 1 43803U 18099AX 26033.16378649 .00015633 00000+0 55848-3 0 9993 2 43803 97.4336 95.8624 0006831 40.4937 319.6810 15.28904567392965 UWE-4 1 43880U 18111E 26033.29847592 .00028230 00000+0 76433-3 0 9995 2 43880 97.5871 316.3704 0012019 89.0302 271.2319 15.37572892389993 TIANYAN 01 1 44881U 19093C 26033.61058635 .00001153 00000+0 13705-3 0 9993 2 44881 97.7685 109.0684 0013831 164.3347 195.8299 14.86253935331423 RS-44 & BREEZE-KM R/B 1 44909U 19096E 26033.45750420 .00000033 00000+0 77300-4 0 9998 2 44909 82.5176 69.2383 0218646 99.3691 263.2201 12.79746810285110 SALSAT 1 46495U 20068K 26033.50211569 .00009220 00000+0 34576-3 0 9997 2 46495 97.8821 28.6199 0012025 60.4103 299.8331 15.27419284294782 XW-3 (CAS-9) 1 50466U 21131B 26033.65241647 .00000906 00000+0 29438-3 0 9991 2 50466 98.5006 126.8051 0004979 133.6228 226.5374 14.41202640215739 GREENCUBE (IO-117) 1 53109U 22080E 26033.24750568 -.00000003 00000+0 00000+0 0 9993 2 53109 70.1638 345.1692 0009146 318.0672 41.9286 6.42583152 83391 UMKA 1 (RS40S) 1 57172U 23091G 26033.59986251 .00007133 00000+0 34305-3 0 9997 2 57172 97.5254 92.8479 0012248 224.4731 135.5521 15.19042422143566 CUBESX-HSE 3 (RS42S) 1 57178U 23091N 26033.59427347 .00016228 00000+0 60472-3 0 9998 2 57178 97.5286 97.7241 0011176 203.1272 156.9466 15.27473175143850 MONITOR-3 (RS58S) 1 57180U 23091Q 26033.61436874 .00013006 00000+0 52564-3 0 9993 2 57180 97.5279 96.2399 0011852 208.3876 151.6717 15.24814543143767 MONITOR-4 (RS57S) 1 57182U 23091S 26033.60138106 .00013038 00000+0 52573-3 0 9996 2 57182 97.5273 96.1898 0011845 209.0111 151.0470 15.24889881143765 MONITOR-2 (RS39S) 1 57184U 23091U 26033.59738113 .00005626 00000+0 28404-3 0 9990 2 57184 97.5278 92.7507 0010673 215.0638 144.9894 15.17456309143533 SVYATOBOR 1 (RS60S) 1 57187U 23091X 26033.64766544 .00011416 00000+0 47327-3 0 9997 2 57187 97.5286 96.8445 0009494 198.1589 161.9310 15.24014612143803 VIZARD-METEO (RS38S) 1 57189U 23091Z 26033.62438772 .00019380 00000+0 64052-3 0 9998 2 57189 97.5276 100.7604 0007947 182.4294 177.6909 15.31382867144061 NANOZOND 1 (RS49S) 1 57190U 23091AA 26033.65352485 .00115055 00000+0 12392-2 0 9994 2 57190 97.5173 111.4089 0003575 176.7558 183.3724 15.63320530144789 POLYTECH-UNIVERSE 3 (R*) 1 57191U 23091AB 26033.64151492 .00006847 00000+0 34274-3 0 9991 2 57191 97.5253 92.3035 0014831 234.4001 125.5851 15.17633003143531 UTMN 2 (RS27S) 1 57203U 23091AP 26033.62308421 .00015491 00000+0 56216-3 0 9994 2 57203 97.5276 99.2203 0008571 187.5250 172.5862 15.28381216143960 KUZGTU 1 (RS47S) 1 57217U 23091AV 26033.61065811 .00013647 00000+0 52537-3 0 9994 2 57217 97.5260 96.9286 0011264 205.9436 154.1239 15.26434455143828 SONATE-2 1 59112U 24043Q 26033.34415464 .00032548 00000+0 60938-3 0 9996 2 59112 97.5354 176.6628 0008294 341.7588 18.3364 15.48597965106953 MESAT1 1 60209U 24125G 26033.10832757 .00034135 00000+0 59852-3 0 9995 2 60209 97.2488 248.6517 0013872 2.3165 357.8149 15.50386857 88559 OOV-CUBE (TUBSAT-30) 1 60240U 24128F 26033.41493623 .00002952 00000+0 23260-3 0 9998 2 60240 61.9972 335.2648 0056825 104.9277 255.8115 15.01987544 85863 COLIBRI-S (RS67S) 1 61746U 24199M 26033.65545243 .00023238 00000+0 54958-3 0 9998 2 61746 97.3211 266.6742 0011383 54.0453 306.1849 15.41750168116646 HORS 3 (RS81S) 1 61753U 24199U 26033.65534539 .00033204 00000+0 68072-3 0 9998 2 61753 97.3181 267.5535 0009782 59.2993 300.9219 15.45943407116711 HORS 4 (RS82S) 1 61754U 24199V 26033.65204116 .00038663 00000+0 73031-3 0 9999 2 61754 97.3159 268.1222 0009616 57.8309 302.3873 15.48292256116756 HORIZON (RS59S) 1 61757U 24199Y 26033.59691512 .00090389 00000+0 10261-2 0 9993 2 61757 97.3149 271.0495 0008247 44.3635 315.8282 15.62014935116930 ARCTICSAT 1 (RS74S) 1 61762U 24199AD 26033.59579597 .00073889 00000+0 93286-3 0 9992 2 61762 97.3163 270.7497 0008285 41.8487 318.3401 15.59288148116913 SIT-2086 1 61764U 24199AF 26033.65589534 .00023638 00000+0 48963-3 0 9992 2 61764 97.3176 268.3121 0008957 45.0460 315.1514 15.45715928113608 MORDOVIA-IOT (RS50S) 1 61765U 24199AG 26030.00009282 .01088222 64376-3 17131-2 0 9999 2 61765 97.2909 271.5843 0005153 76.8106 283.3749 16.04044133113518 RUZAEVKA 390 (RS44S) 1 61766U 24199AH 26033.17970470 .00223778 00000+0 13287-2 0 9991 2 61766 97.3061 272.9898 0006220 49.8562 310.3248 15.77365322113886 HYPERVIEW 1G (RS66S) 1 61772U 24199AP 26033.63428524 .00054731 00000+0 85944-3 0 9998 2 61772 97.3152 268.9010 0011238 55.5968 304.6347 15.53416233113657 ALTAIR (RS65S) 1 61779U 24199AW 26033.61943861 .00011743 00000+0 35713-3 0 9994 2 61779 97.3226 263.9516 0015502 71.2331 289.0592 15.34067291116464 ASRTU-1 (AO-123) 1 61781U 24199AY 26033.64458113 .00011638 00000+0 36272-3 0 9995 2 61781 97.3206 263.5608 0015988 72.2363 288.0623 15.33280231113299 TUSUR GO (RS78S) 1 61782U 24199AZ 26033.61309874 .00098327 00000+0 11223-2 0 9990 2 61782 97.3104 270.0906 0009738 54.3806 305.8357 15.61830432113736 SAMSAT-IONOSPHERE (RS7*) 1 61784U 24199BB 26033.63669652 .00037810 00000+0 75296-3 0 9998 2 61784 97.3175 267.2811 0012771 59.9603 300.2912 15.46727087116694 RTU MIREA 1 (RS51S) 1 61785U 24199BC 26033.60906100 .00042456 00000+0 80087-3 0 9994 2 61785 97.3170 267.6086 0012356 57.8549 302.3899 15.48278067113564 HADES-R 1 62690U 25009CK 26032.99082620 .05664363 23962-5 28116-2 0 9998 2 62690 97.3536 123.7794 0009922 302.1245 57.9081 16.20799086 58843 TEVEL2-4 1 63213U 25052D 26033.24948875 .00019550 00000+0 68804-3 0 9998 2 63213 97.4078 289.7935 0001508 177.7667 182.3580 15.29366489 49452 TEVEL2-5 1 63214U 25052E 26033.65047074 .00020491 00000+0 72281-3 0 9995 2 63214 97.4066 290.1721 0001522 175.4017 184.7237 15.29282356 49511 TEVEL2-6 1 63215U 25052F 26033.65932565 .00021171 00000+0 74762-3 0 9996 2 63215 97.4076 290.1679 0001542 180.5501 179.5738 15.29238459 49515 TEVEL2-1 1 63217U 25052H 26033.19029640 .00019019 00000+0 68033-3 0 9990 2 63217 97.4054 289.4667 0001111 210.9399 149.1776 15.28839046 49430 TEVEL2-3 1 63218U 25052J 26033.25407890 .00018909 00000+0 67575-3 0 9992 2 63218 97.4053 289.5386 0001123 211.2047 148.9127 15.28871531 49449 TEVEL2-2 1 63219U 25052K 26033.25644546 .00019284 00000+0 68965-3 0 9995 2 63219 97.4054 289.5334 0001115 215.6514 144.4652 15.28844945 49445 TEVEL2-9 1 63237U 25052AD 26033.46842004 .00017896 00000+0 67217-3 0 9993 2 63237 97.4116 289.3729 0004641 260.1127 99.9589 15.27236664 49436 TEVEL2-7 1 63238U 25052AE 26033.42253404 .00017199 00000+0 64985-3 0 9995 2 63238 97.4118 289.2891 0004709 260.5455 99.5252 15.27045891 49423 TEVEL2-8 1 63239U 25052AF 26033.23243443 .00017610 00000+0 66593-3 0 9992 2 63239 97.4114 289.0824 0004745 262.0794 97.9907 15.27014944 49397 HADES-ICM 1 63492U 25052BN 26033.24100884 .00091400 00000+0 17168-2 0 9997 2 63492 97.4028 292.6353 0003381 236.4820 123.6108 15.48265630 49640 INNOSAT 16 (RS92S7) 1 64878U 25155C 26033.58633424 .00008607 00000+0 36227-3 0 9993 2 64878 97.4404 1.4528 0009090 306.7225 53.3177 15.23582248 60165 GEOSCAN 6 (RS92S6) 1 64879U 25155D 26033.60197478 .00014112 00000+0 53476-3 0 9994 2 64879 97.4404 2.0605 0006113 303.8838 56.1819 15.26988040 60202 GEOSCAN 1 (RS92S1) 1 64880U 25155E 26033.58119437 .00014917 00000+0 55902-3 0 9991 2 64880 97.4404 2.0934 0006014 304.6886 55.3786 15.27344692 60205 239ALFEROV (RS61S) 1 64881U 25155F 26033.57308529 .00018616 00000+0 67101-3 0 9997 2 64881 97.4411 2.2827 0005543 306.1066 53.9660 15.28581773 60210 GEOSCAN 2 (RS92S2) 1 64890U 25155Q 26033.60054825 .00014871 00000+0 55222-3 0 9998 2 64890 97.4402 2.2079 0005099 287.0083 73.0597 15.27652543 60216 GEOSCAN 5 (RS92S5) 1 64891U 25155R 26033.59096823 .00018530 00000+0 66104-3 0 9998 2 64891 97.4404 2.3843 0004610 318.5168 41.5721 15.28926129 60226 GEOSCAN 4 (RS92S4) 1 64892U 25155S 26033.58554768 .00018984 00000+0 67536-3 0 9998 2 64892 97.4406 2.3969 0004620 319.6844 40.4053 15.29013024 60220 GEOSCAN 3 (RS92S3) 1 64893U 25155T 26033.59075017 .00022253 00000+0 76542-3 0 9996 2 64893 97.4401 2.5326 0004293 325.3075 34.7885 15.30080373 60234 INNOSAT 3 (RS92S0) 1 64894U 25155U 26033.59420204 .00037405 00000+0 11371-2 0 9992 2 64894 97.4375 2.9613 0003501 339.1459 20.9640 15.33945274 60260